Вернуться в каталог

STARLINK-11205

АктивенСвязьVLEO
NORAD 60313·PAYLOAD·🇺🇸 United States

Запущен Jul 28, 2024 с Vandenberg Space Force Base

Loading…

Ближайшие Пролёты (ближайшие 24 часа)

TLE

СвежийSource: CelesTrak SupGP

Эпоха: Sep 15, 2026, 02:21 UTC

1 60313C 24133N   26258.09840278  .00070682  00000+0  58189-3 0  2581
2 60313  53.1568 292.7716 0001127  96.5307 103.3283 15.69688082    12

Отслеживайте STARLINK-11205 в реальном времени с AllMySat

Download on the App Store